EW0121 Weather Reports


Display with metric or nautical units.
time (UTC)temp
F
wind
direction
speed
MPH
gust
MPH
rain 1hr
in
rain 24hr
in
rain mn
in
humidity
%
barometer
mb
20260507134520 63 76 1.0 8.0 0.00 0.00 0.00 49 1015.9
20260507133021 61 360 1.0 7.0 0.00 0.00 0.00 50 1015.9
20260507131514 61 125 1.0 6.0 0.00 0.00 0.00 49 1016.1
20260507130012 62 266 0.0 5.0 0.00 0.00 0.00 49 1016.1
20260507124506 60 90 1.0 4.0 0.00 0.00 0.00 48 1016.2
20260507123014 61 112 2.0 8.0 0.00 0.00 0.00 45 1016.2
20260507121517 62 135 2.0 7.0 0.00 0.00 0.00 43 1016.1
20260507120018 63 55 2.0 8.0 0.00 0.00 0.00 43 1016.1
20260507114517 62 5 2.0 6.0 0.00 0.00 0.00 44 1016.1
20260507113011 65 51 2.0 8.0 0.00 0.00 0.00 45 1016.1
20260507111514 64 234 1.0 3.0 0.00 0.00 0.00 46 1016.2
20260507110018 64 161 2.0 7.0 0.00 0.00 0.00 48 1016.5
20260507104520 62 119 2.0 5.0 0.00 0.00 0.00 51 1016.5
20260507103021 60 127 2.0 6.0 0.00 0.00 0.00 53 1016.7
20260507101532 61 141 2.0 5.0 0.00 0.00 0.00 56 1016.7
20260507100021 58 140 3.0 8.0 0.00 0.00 0.00 57 1016.7
20260507094523 59 177 3.0 10.0 0.00 0.00 0.00 57 1016.7
20260507093022 56 157 1.0 8.0 0.00 0.00 0.00 63 1016.7
20260507091523 56 83 2.0 8.0 0.00 0.00 0.00 70 1016.7
20260507090021 55 133 3.0 8.0 0.00 0.00 0.00 73 1016.8
20260507084520 53 120 2.0 3.0 0.00 0.00 0.00 76 1016.9
20260507083020 52 69 1.0 5.0 0.00 0.00 0.00 77 1017.0
20260507081526 50 67 0.0 4.0 0.00 0.00 0.00 79 1016.8
20260507080022 49 292 0.0 2.0 0.00 0.00 0.00 80 1017.0
20260507074523 47 234 0.0 3.0 0.00 0.00 0.00 81 1016.9
20260507073024 46 234 1.0 3.0 0.00 0.00 0.00 82 1016.8
20260507071525 45 40 0.0 3.0 0.00 0.00 0.00 83 1016.6
20260507070014 45 213 0.0 4.0 0.00 0.00 0.00 84 1016.5
20260507064514 44 74 1.0 6.0 0.00 0.00 0.00 84 1016.4
20260507063017 44 147 1.0 6.0 0.00 0.00 0.00 84 1016.3
20260507061523 43 45 1.0 6.0 0.00 0.00 0.00 85 1016.3
20260507060027 43 77 0.0 4.0 0.00 0.00 0.00 85 1016.3
20260507054511 42 107 1.0 4.0 0.00 0.00 0.00 85 1016.2
20260507053014 42 103 2.0 6.0 0.00 0.00 0.00 86 1016.2
20260507051522 42 92 1.0 6.0 0.00 0.00 0.00 85 1016.2
20260507050029 42 134 0.0 6.0 0.00 0.00 0.00 86 1016.1
20260507044526 42 122 1.0 6.0 0.00 0.00 0.00 85 1016.1
20260507043010 42 180 1.0 4.0 0.00 0.00 0.00 85 1016.1
20260507041518 42 83 1.0 6.0 0.00 0.00 0.00 85 1016.1
20260507040023 43 55 1.0 8.0 0.00 0.00 0.00 85 1016.1
20260507034525 43 132 1.0 7.0 0.00 0.00 0.00 85 1016.0
20260507033041 43 120 1.0 4.0 0.00 0.00 0.00 84 1015.9
20260507031521 43 103 1.0 6.0 0.00 0.00 0.00 85 1015.9
20260507030022 42 85 2.0 6.0 0.00 0.00 0.00 85 1015.9
20260507024525 42 78 1.0 7.0 0.00 0.00 0.00 84 1015.9
20260507023026 42 69 1.0 4.0 0.00 0.00 0.00 84 1015.9
20260507021526 42 80 2.0 4.0 0.00 0.00 0.00 84 1015.9
20260507020022 42 211 1.0 4.0 0.00 0.00 0.00 84 1016.0
20260507014527 42 82 1.0 9.0 0.00 0.00 0.00 84 1015.9
20260507013033 42 111 2.0 6.0 0.00 0.00 0.00 84 1015.8
20260507011534 42 61 1.0 6.0 0.00 0.00 0.00 83 1015.8
20260507010037 42 119 2.0 7.0 0.00 0.00 0.00 83 1015.9
20260507004520 42 107 1.0 6.0 0.00 0.00 0.00 82 1015.9
20260507003026 42 72 1.0 6.0 0.00 0.00 0.00 82 1016.0
20260507001528 42 84 2.0 6.0 0.00 0.00 0.00 81 1016.1
20260507000028 43 137 0.0 7.0 0.00 0.00 0.00 80 1016.2
20260506234526 43 105 0.0 6.0 0.00 0.00 0.00 80 1016.2
20260506233019 43 124 2.0 6.0 0.00 0.00 0.00 79 1016.2
20260506231525 44 137 1.0 4.0 0.00 0.00 0.00 78 1016.0
20260506230031 44 60 1.0 3.0 0.00 0.00 0.00 77 1016.1
20260506224528 43 92 0.0 2.0 0.00 0.00 0.00 77 1016.1
20260506223028 44 83 0.0 2.0 0.00 0.00 0.00 74 1016.0
20260506221521 45 82 0.0 2.0 0.00 0.00 0.00 72 1015.9
20260506220028 46 75 0.0 4.0 0.00 0.00 0.00 71 1015.8
20260506214513 46 83 1.0 3.0 0.00 0.00 0.00 70 1015.7
20260506213018 46 96 1.0 3.0 0.00 0.00 0.00 69 1015.6
20260506211522 47 98 0.0 3.0 0.00 0.00 0.00 68 1015.5
20260506210031 47 92 0.0 2.0 0.00 0.00 0.00 68 1015.5
20260506204527 47 92 0.0 2.0 0.00 0.00 0.00 68 1015.3
20260506203014 47 66 0.0 2.0 0.00 0.00 0.00 68 1015.3
20260506201520 48 59 0.0 2.0 0.00 0.00 0.00 67 1015.1
20260506200023 49 65 0.0 3.0 0.00 0.00 0.00 66 1015.0
20260506194526 50 49 0.0 2.0 0.00 0.00 0.00 64 1014.9
20260506193027 51 40 0.0 3.0 0.00 0.00 0.00 61 1014.9
20260506191518 52 42 1.0 3.0 0.00 0.00 0.00 57 1014.9
20260506190004 53 14 1.0 2.0 0.00 0.00 0.00 55 1014.7
20260506184506 54 5 1.0 5.0 0.00 0.00 0.00 54 1014.6
20260506183008 55 11 1.0 3.0 0.00 0.00 0.00 53 1014.6
20260506181511 57 28 2.0 8.0 0.00 0.00 0.00 45 1014.4
20260506180025 57 28 1.0 4.0 0.00 0.00 0.00 46 1014.3
20260506174504 57 349 0.0 5.0 0.00 0.00 0.00 47 1014.2
20260506173013 57 343 1.0 3.0 0.00 0.00 0.00 44 1014.3
20260506171514 58 38 1.0 6.0 0.00 0.00 0.00 45 1014.2
20260506170013 59 17 2.0 6.0 0.00 0.00 0.00 45 1014.1
20260506164520 60 309 5.0 11.0 0.00 0.00 0.00 43 1014.0
20260506163004 60 352 1.0 10.0 0.00 0.00 0.00 44 1014.0
20260506161511 59 310 3.0 8.0 0.00 0.00 0.00 43 1014.0
20260506160012 60 18 2.0 8.0 0.00 0.00 0.00 43 1013.9
20260506154515 61 323 2.0 9.0 0.00 0.00 0.00 42 1014.0
20260506153020 63 346 3.0 8.0 0.00 0.00 0.00 41 1014.1
20260506151506 63 316 3.0 10.0 0.00 0.00 0.00 39 1014.2
20260506150012 59 11 2.0 14.0 0.00 0.00 0.00 43 1014.3
20260506144513 64 11 1.0 7.0 0.00 0.00 0.00 39 1014.4
20260506143025 64 346 2.0 9.0 0.00 0.00 0.00 42 1014.5
20260506141524 64 352 2.0 8.0 0.00 0.00 0.00 42 1014.5
20260506140008 65 41 3.0 12.0 0.00 0.00 0.00 40 1014.6